Regional Weather Roundup
Issued by NWS

Home | Current Version | Previous Version | Text Only | Print | Product List | Glossary On
Versions: 1 2 3 4 5 6 7 8 9 10 11 12 13 14 15 16 17 18 19 20 21 22 23 24 25 26 27 28 29 30 31 32 33 34 35 36 37 38 39 40 41 42 43 44 45 46 47 48 49 50
000
ASUS44 KFWD 231715
RWRTX
NORTH TEXAS HOURLY WEATHER ROUNDUP
NATIONAL WEATHER SERVICE FORT WORTH TX
1200 PM CDT THU OCT 23 2014

NOTE: "FAIR" INDICATES FEW OR NO CLOUDS BELOW 12,000 FEET WITH NO
SIGNIFICANT WEATHER AND/OR OBSTRUCTIONS TO VISIBILITY.

TXZ118-119-231800-
DALLAS/FORT WORTH METROPLEX

CITY           SKY/WX    TMP DP  RH WIND       PRES   REMARKS
DFW AIRPORT    PTSUNNY   69  55  60 S9        30.16F
DALLAS LOVE    PTSUNNY   71  54  54 S7        30.17S
FTW MEACHAM    SUNNY     72  55  55 S8        30.15F
DAL-EXECUTIVE  PTSUNNY   71  54  54 VRB6      30.16F
FTW-ALLIANCE   MOSUNNY   73  55  53 S8        30.15F
FTW-NAS-JRB    PTSUNNY   77  55  46 S7        30.20F
FTW-SPINKS     MOSUNNY   72  55  56 S6        30.17F
ARLINGTON      CLOUDY    68  54  60 SE7       30.17F
MESQUITE       MOSUNNY   72  54  53 SW5       30.18F
LANCASTER      CLOUDY    68  53  58 S7        30.18F
$$

TXZ091>094-102>105-117-120-121-131>134-231800-
NORTH CENTRAL TEXAS

CITY           SKY/WX    TMP DP  RH WIND       PRES   REMARKS
SHRMAN/DENISON PTSUNNY   68  60  75 SE6       30.18S
GAINESVILLE    SUNNY     71  56  59 S12       30.18S
BOWIE          MOSUNNY   74  57  56 S9        30.15S
BRIDGEPORT     SUNNY     75  59  57 S7        30.16F
DECATUR        MOSUNNY   72  55  54 S9        30.16S
DENTON         CLOUDY    70  55  59 S9        30.16F
MCKINNEY       CLOUDY    70  55  59 SE7       30.17S
GREENVILLE     PTSUNNY   70  50  49 S5        30.18F
ROCKWALL       CLOUDY    70  54  57 S7G20     30.17S
TERRELL        CLOUDY    69  54  58 VRB5      30.18S
WAXAHACHIE     CLOUDY    66  57  72 CALM      30.19S
GRANBURY       PTSUNNY   73  59  62 SE5       30.17S
$$

TXZ083>090-098>101-113>116-127>130-139>142-154-155-231800-
WESTERN NORTH TEXAS

CITY           SKY/WX    TMP DP  RH WIND       PRES   REMARKS
WICHITA FALLS  PTSUNNY   74  59  59 S9        30.13S
WF-KICKAPOO    MOSUNNY   74  56  53 SW6       30.15S
VERNON         SUNNY     73  57  56 S7        30.13F
ABILENE        MOSUNNY   75  58  55 SW10      30.16S
ABILENE-DYESS  SUNNY     76  59  54 S14G20    30.14F
BRECKENRIDGE   CLOUDY    76  58  53 S5        30.15S HAZE
GRAHAM         MOSUNNY   75  60  60 S6        30.14S
MINERAL WELLS  SUNNY     76  58  53 S8        30.13F
STEPHENVILLE   MOSUNNY   73  59  61 CALM      30.19S
COMANCHE       MOSUNNY   77  62  58 S3        30.16F
BROWNWOOD      MOSUNNY   73  59  60 S5        30.16F
COLEMAN        PTSUNNY   76  61  60 S5        30.16F
BRADY          SUNNY     77  55  47 VRB7      30.16F
$$

TXZ143>147-156>162-174-175-231800-
CENTRAL TEXAS

CITY           SKY/WX    TMP DP  RH WIND       PRES   REMARKS
WACO           CLOUDY    73  56  54 SE5       30.16F
WACO-TSTC      SUNNY     73  57  56 S6        30.17F
WACO-MCGREGOR  PTSUNNY   73  55  53 S5        30.17F
HILLSBORO      CLOUDY    72  55  54 S7        30.17F
CORSICANA      CLOUDY    70  55  59 S6        30.18F
MEXIA          MOSUNNY   69  55  61 SE6       30.17S
HEARNE         MOSUNNY   72  55  56 CALM      30.17F
CAMERON        PTSUNNY   73  57  57 SE5       30.16F
TEMPLE         PTSUNNY   72  55  56 SE6       30.16S
KILLEEN        MOSUNNY   75  61  60 VRB2      30.16F
KILLEEN-SKYLRK MOSUNNY   73  57  56 CALM      30.16F
FORT HOOD      PTSUNNY   78  62  57 CALM      30.16S
GATESVILLE     SUNNY     75  61  60 CALM      30.18S
HAMILTON       PTSUNNY   75  59  57 S7        30.17F
LAMPASAS       PTSUNNY   76  65  70 CALM      30.16S
$$

TXZ095>097-106>112-122>126-135>138-148>153-164>167-231800-
EAST TEXAS

CITY           SKY/WX    TMP DP  RH WIND       PRES   REMARKS
PARIS          MOSUNNY   66  46  48 SE5       30.19F
SULPHUR SPRNGS SUNNY     69  51  51 CALM      30.20S
MOUNT PLEASANT MOSUNNY   68  47  47 SE3       30.20S
MINEOLA        SUNNY     70  54  56 S3        30.19S
TYLER          MOSUNNY   69  51  52 VRB5      30.18S
LONGVIEW       PTSUNNY   64  52  64 CALM      30.18S
MARSHALL       PTSUNNY   64  54  71 CALM      30.21R
ATHENS         SUNNY     68  52  56 CALM      30.17S
PALESTINE      PTSUNNY   66  53  62 CALM      30.20R
JACKSONVILLE   PTSUNNY   62  52  70 CALM      30.19S
HENDERSON      PTSUNNY   66  51  57 CALM      30.19S
NACOGDOCHES    CLOUDY    64  54  68 CALM      30.17S
LUFKIN         CLOUDY    71  55  56 CALM      30.16S
$$

SUPPLEMENTAL OBSERVATIONS (CENTRAL)

CITY           SKY/WX    TMP DP  RH WIND       PRES   REMARKS
LAKE TEXOMA      N/A     64  59  82 SE5         N/A
CADDO GRASSLND   N/A     72  54  53 S6          N/A
PAT MAYSE LAKE   N/A     64  50  59 E3          N/A
GREENVILLE       N/A     70  52  52 S6          N/A
CEDAR HILL       N/A     70  55  60 S6          N/A
PALESTINE        N/A     66  54  63 E1          N/A
LAKE LIMESTONE   N/A     75  54  46 SE3         N/A
MCGREGOR         N/A     75  57  53 S5          N/A
TEMPLE           N/A     73  59  60 SE5         N/A
$$

SUPPLEMENTAL OBSERVATIONS (WEST)

CITY           SKY/WX    TMP DP  RH WIND       PRES   REMARKS
MILLERS CREEK    N/A     75  66  73 SW10        N/A
POSSUM KINGDOM   N/A     75  57  53 S6          N/A
LBJ GRASSLAND    N/A     75  55  50 S9          N/A
GRANBURY         N/A     72  57  60 SE6         N/A
COMANCHE         N/A     75  63  64 SW8         N/A
HAMBY            N/A     75  57  53 SW14        N/A
IVIE RESERVOIR   N/A     79  61  53 S5G13       N/A
COLORADO BEND    N/A     75  61  60 SW5         N/A
$$

SUPPLEMENTAL OBSERVATIONS (EAST)

CITY           SKY/WX    TMP DP  RH WIND       PRES   REMARKS
CLARKSVILLE      N/A     70  50  49 S6          N/A
TEXARKANA        N/A     66  46  48 E3          N/A
LINDEN           N/A     66  50  55 SE3         N/A
CADDO LAKE       N/A     63  52  67 SE3         N/A
GILMER           N/A     70  52  52 E3          N/A
HENDERSON        N/A     68  50  52 E3          N/A
LUFKIN           N/A     72  54  53 MISG        N/A
N SABINE NF      N/A     64  54  68 MISG        N/A
$$

SUPPLEMENTAL OBSERVATIONS ARE A COLLECTION OF AUTOMATED INSTRUMENTS
THAT ARE MAINTAINED BY A VARIETY OF FEDERAL AND STATE AGENCIES.
CERTAIN ELEMENTS...SUCH AS HUMIDITY VALUES AND SUSTAINED WIND
SPEEDS...MAY BE APPROXIMATED.




USA.gov is the U.S. government's official web portal to all federal, state and local government web resources and services.